Previsão horária em Abashevo

Hoje, 17 Abril, Sábado

Tempo Temperatura Precipitação Vento Pressão Humidade
00:00 +11°C° 0 mm 4 m/s 748 mmHg 81%
01:00 +10°C° 0 mm 4 m/s 748 mmHg 84%
02:00 +10°C° 0 mm 4 m/s 749 mmHg 87%
03:00 +8°C° 0 mm 4 m/s 749 mmHg 90%
04:00 +8°C° 0 mm 4 m/s 749 mmHg 89%
05:00 +8°C° 0 mm 4 m/s 749 mmHg 89%
06:00 +7°C° 0 mm 5 m/s 748 mmHg 88%
07:00 +9°C° 0 mm 5 m/s 748 mmHg 81%
08:00 +11°C° 0 mm 6 m/s 748 mmHg 73%
09:00 +13°C° 0 mm 6 m/s 748 mmHg 66%
10:00 +15°C° 0 mm 6 m/s 748 mmHg 60%
11:00 +16°C° 0 mm 7 m/s 748 mmHg 54%
12:00 +18°C° 0 mm 7 m/s 748 mmHg 48%
13:00 +18°C° 0.1 mm 7 m/s 748 mmHg 48%
14:00 +19°C° 0.1 mm 6 m/s 748 mmHg 47%
15:00 +19°C° 0.1 mm 6 m/s 747 mmHg 47%
16:00 +17°C° 0.2 mm 6 m/s 747 mmHg 50%
17:00 +17°C° 0.2 mm 7 m/s 747 mmHg 53%
18:00 +16°C° 0.2 mm 7 m/s 747 mmHg 56%
19:00 +14°C° 0.7 mm 6 m/s 747 mmHg 64%
20:00 +13°C° 0.7 mm 5 m/s 747 mmHg 72%
21:00 +12°C° 0.7 mm 3 m/s 748 mmHg 80%
22:00 +11°C° 0.8 mm 3 m/s 748 mmHg 82%
23:00 +10°C° 0.8 mm 2 m/s 748 mmHg 83%

Amanhã, 18 Abril, Domingo

Tempo Temperatura Precipitação Vento Pressão Humidade
00:00 +9°C° 0.8 mm 2 m/s 748 mmHg 85%
01:00 +9°C° 0.9 mm 2 m/s 748 mmHg 86%
02:00 +10°C° 0.9 mm 1 m/s 748 mmHg 88%
03:00 +10°C° 0.9 mm 1 m/s 748 mmHg 89%
04:00 +9°C° 1 mm 1 m/s 748 mmHg 90%
05:00 +8°C° 1 mm 2 m/s 748 mmHg 92%
06:00 +8°C° 1 mm 2 m/s 748 mmHg 93%
07:00 +8°C° 1.1 mm 3 m/s 748 mmHg 92%
08:00 +7°C° 1.1 mm 3 m/s 748 mmHg 92%
09:00 +7°C° 1.1 mm 3 m/s 748 mmHg 92%
10:00 +7°C° 1 mm 3 m/s 748 mmHg 92%
11:00 +5°C° 1 mm 3 m/s 749 mmHg 91%
12:00 +5°C° 1 mm 3 m/s 749 mmHg 91%
13:00 +5°C° 0.1 mm 4 m/s 749 mmHg 90%
14:00 +5°C° 0.1 mm 4 m/s 749 mmHg 89%
15:00 +6°C° 0.1 mm 4 m/s 749 mmHg 87%
16:00 +6°C° 0 mm 4 m/s 749 mmHg 88%
17:00 +6°C° 0 mm 4 m/s 749 mmHg 88%
18:00 +6°C° 0 mm 4 m/s 749 mmHg 89%
19:00 +5°C° 0 mm 4 m/s 750 mmHg 90%
20:00 +5°C° 0 mm 4 m/s 750 mmHg 90%
21:00 +5°C° 0 mm 3 m/s 750 mmHg 91%
22:00 +5°C° 0 mm 3 m/s 750 mmHg 91%
23:00 +5°C° 0 mm 3 m/s 750 mmHg 91%

Depois de amanhã, 19 Abril, Segunda-feira

Tempo Temperatura Precipitação Vento Pressão Humidade
00:00 +5°C° 0 mm 3 m/s 750 mmHg 91%
01:00 +5°C° 0 mm 3 m/s 750 mmHg 90%
02:00 +5°C° 0 mm 3 m/s 750 mmHg 89%
03:00 +5°C° 0 mm 4 m/s 750 mmHg 88%
04:00 +5°C° 0 mm 4 m/s 750 mmHg 88%
05:00 +5°C° 0 mm 4 m/s 750 mmHg 88%
06:00 +5°C° 0 mm 5 m/s 750 mmHg 89%
07:00 +5°C° 0 mm 5 m/s 750 mmHg 88%
08:00 +5°C° 0 mm 5 m/s 750 mmHg 87%
09:00 +4°C° 0 mm 6 m/s 750 mmHg 85%
10:00 +4°C° 0.1 mm 6 m/s 750 mmHg 84%
11:00 +5°C° 0.1 mm 6 m/s 750 mmHg 82%
12:00 +5°C° 0.1 mm 6 m/s 750 mmHg 81%
13:00 +5°C° 0.1 mm 6 m/s 750 mmHg 78%
14:00 +7°C° 0.1 mm 6 m/s 750 mmHg 75%
15:00 +7°C° 0.1 mm 6 m/s 750 mmHg 73%
16:00 +7°C° 0 mm 6 m/s 750 mmHg 71%
17:00 +7°C° 0 mm 6 m/s 750 mmHg 69%
18:00 +7°C° 0 mm 6 m/s 750 mmHg 67%
19:00 +5°C° 0 mm 7 m/s 750 mmHg 70%
20:00 +5°C° 0 mm 7 m/s 750 mmHg 72%
21:00 +5°C° 0 mm 7 m/s 750 mmHg 75%
22:00 +4°C° 0 mm 7 m/s 750 mmHg 76%
23:00 +4°C° 0 mm 7 m/s 750 mmHg 77%

20 Abril, Terça-feira

Tempo Temperatura Precipitação Vento Pressão Humidade
00:00 +3°C° 0 mm 7 m/s 750 mmHg 79%
01:00 +3°C° 0 mm 7 m/s 750 mmHg 80%
02:00 +3°C° 0 mm 7 m/s 750 mmHg 82%
03:00 +3°C° 0 mm 7 m/s 750 mmHg 84%
04:00 +3°C° 0 mm 7 m/s 749 mmHg 85%
05:00 +3°C° 0 mm 7 m/s 749 mmHg 86%
06:00 +3°C° 0 mm 7 m/s 749 mmHg 87%
07:00 +2°C° 0 mm 8 m/s 749 mmHg 86%
08:00 +2°C° 0 mm 8 m/s 749 mmHg 85%
09:00 +2°C° 0 mm 8 m/s 749 mmHg 85%
10:00 +3°C° 0 mm 9 m/s 748 mmHg 82%
11:00 +5°C° 0 mm 9 m/s 748 mmHg 80%
12:00 +6°C° 0 mm 9 m/s 748 mmHg 78%
13:00 +6°C° 0 mm 9 m/s 747 mmHg 77%
14:00 +6°C° 0 mm 10 m/s 747 mmHg 76%
15:00 +6°C° 0 mm 10 m/s 747 mmHg 75%
16:00 +6°C° 0.4 mm 10 m/s 746 mmHg 78%
17:00 +5°C° 0.4 mm 10 m/s 746 mmHg 80%
18:00 +3°C° 0.4 mm 10 m/s 745 mmHg 83%
19:00 +3°C° 2.2 mm 11 m/s 745 mmHg 85%
20:00 +3°C° 2.2 mm 11 m/s 745 mmHg 87%
21:00 +3°C° 2.2 mm 11 m/s 744 mmHg 89%
22:00 +3°C° 1.8 mm 12 m/s 743 mmHg 89%
23:00 +3°C° 1.8 mm 12 m/s 743 mmHg 90%

21 Abril, Quarta-feira

Tempo Temperatura Precipitação Vento Pressão Humidade
00:00 +3°C° 1.8 mm 12 m/s 742 mmHg 90%
01:00 +3°C° 0.7 mm 12 m/s 742 mmHg 90%
02:00 +4°C° 0.7 mm 11 m/s 741 mmHg 89%
03:00 +4°C° 0.7 mm 11 m/s 741 mmHg 89%
04:00 +4°C° 0.3 mm 11 m/s 741 mmHg 89%
05:00 +5°C° 0.3 mm 10 m/s 741 mmHg 89%
06:00 +5°C° 0.3 mm 10 m/s 741 mmHg 89%
07:00 +6°C° 0 mm 10 m/s 741 mmHg 89%
08:00 +6°C° 0 mm 10 m/s 741 mmHg 89%
09:00 +6°C° 0 mm 10 m/s 741 mmHg 89%
10:00 +7°C° 0 mm 9 m/s 742 mmHg 87%
11:00 +7°C° 0 mm 9 m/s 742 mmHg 85%
12:00 +8°C° 0 mm 9 m/s 743 mmHg 84%
13:00 +7°C° 0 mm 8 m/s 743 mmHg 84%
14:00 +8°C° 0 mm 7 m/s 744 mmHg 84%
15:00 +8°C° 0 mm 6 m/s 744 mmHg 84%
16:00 +8°C° 0 mm 5 m/s 745 mmHg 83%
17:00 +8°C° 0 mm 4 m/s 746 mmHg 82%
18:00 +8°C° 0 mm 3 m/s 746 mmHg 81%
19:00 +7°C° 0 mm 4 m/s 747 mmHg 82%
20:00 +7°C° 0 mm 4 m/s 747 mmHg 83%
21:00 +7°C° 0 mm 4 m/s 747 mmHg 84%
22:00 +6°C° 0 mm 4 m/s 747 mmHg 87%
23:00 +6°C° 0 mm 4 m/s 748 mmHg 89%

22 Abril, Quinta-feira

Tempo Temperatura Precipitação Vento Pressão Humidade
00:00 +5°C° 0 mm 3 m/s 748 mmHg 91%
01:00 +5°C° 0 mm 4 m/s 748 mmHg 92%
02:00 +5°C° 0 mm 4 m/s 748 mmHg 92%
03:00 +5°C° 0 mm 5 m/s 748 mmHg 92%
04:00 +5°C° 0 mm 4 m/s 748 mmHg 93%
05:00 +5°C° 0 mm 4 m/s 749 mmHg 93%
06:00 +5°C° 0 mm 4 m/s 749 mmHg 93%
07:00 +7°C° 0 mm 4 m/s 749 mmHg 87%
08:00 +8°C° 0 mm 4 m/s 750 mmHg 82%
09:00 +11°C° 0 mm 4 m/s 750 mmHg 76%
10:00 +12°C° 0.1 mm 5 m/s 750 mmHg 69%
11:00 +13°C° 0.1 mm 5 m/s 750 mmHg 62%
12:00 +14°C° 0.1 mm 5 m/s 750 mmHg 55%
13:00 +14°C° 0 mm 5 m/s 750 mmHg 54%
14:00 +14°C° 0 mm 4 m/s 750 mmHg 54%
15:00 +14°C° 0 mm 4 m/s 750 mmHg 53%
16:00 +13°C° 0 mm 3 m/s 751 mmHg 56%
17:00 +13°C° 0 mm 3 m/s 751 mmHg 58%
18:00 +14°C° 0 mm 2 m/s 751 mmHg 61%
19:00 +13°C° 0 mm 2 m/s 751 mmHg 63%
20:00 +12°C° 0 mm 2 m/s 751 mmHg 66%
21:00 +12°C° 0 mm 2 m/s 752 mmHg 68%
22:00 +10°C° 0 mm 2 m/s 752 mmHg 69%
23:00 +10°C° 0 mm 2 m/s 752 mmHg 70%
Mostrar mais

Necessitamos do seu Consentimento

A Meteoprog e os seus Fornecedores de Serviços podem armazenar e aceder a dados pessoais como cookies, identificadores do dispositivo ou outras tecnologias semelhantes existentes no seu dispositivo e processar estes dados para personalizar conteúdos e anúncios, assim como funcionalidades nas redes sociais e análise de tráfego.

  • Armazenar e/ou aceder a informações no seu dispositivo

    Os cookies, identificadores do dispositivo ou outras informações podem ser armazenados ou acedidos no seu dispositivo, para os fins acima indicados.

  • Anúncios e conteúdos personalizados, medição de anúncios e conteúdos, dados sobre o público-alvo e desenvolvimento de produtos

    Os anúncios e os conteúdos podem ser personalizados com base num perfil. Podem ser adicionados dados adicionais para uma maior personalização dos anúncios e dos conteúdos. A eficácia dos anúncios e dos conteúdos pode ser medida. Podem ser obtidas informações sobre o público que visualizou os anúncios e os conteúdos. Estes dados podem ser usados para desenvolver ou melhorar sistemas, softwares ou a experiência do utilizador.

Ao clicar em "Eu concordo”, permitirá o uso de cookies, identificadores do dispositivo e web beacons mencionados ou outras tecnologias semelhantes. As configurações do navegador do seu dispositivo podem ser alteradas.

Para certos fins, podem ser invocados interesses legítimos ao invés de consentimento. Pode ler mais informação sobre este assunto na nossa Política de Privacidade e Cookies.